Simultaneous Nadir Overpasses (SNOs) Predictions

Prediction of SNOs between METOP-B and NOAA-19 Satellite Orbit:

Table of predicted SNOs for the next 14.0 days since TLE Epoch: 6/27/2015
Index Date (METOP-B) Time (METOP-B) Lat,Lon (METOP-B) SZA (METOP-B ) Date (NOAA-19) Time (NOAA-19) Lat,Lon (NOAA-19) SZA (NOAA-19 ) Distance(km) Time Diff (sec)
1 07/02/2015 15:59:15 -75.48, 119.15 127.62 07/02/2015 15:58:08 -75.52, 116.11 127.51 84.57 67
2 07/02/2015 16:50:05 75.00, -74.92 51.93 07/02/2015 16:49:03 75.01, -75.05 51.94 3.67 62
3 07/02/2015 17:40:47 -74.98, 92.35 128.09 07/02/2015 17:39:59 -74.99, 92.28 128.08 2.00 48
4 07/02/2015 18:31:28 74.94,-100.45 51.87 07/02/2015 18:31:04 74.93,-100.33 51.87 3.56 24
5 07/02/2015 19:22:09 -74.96, 66.95 128.10 07/02/2015 19:22:01 -74.96, 66.86 128.11 2.81 8
6
